Back to catalog

STARLINK-2379

AliveCommunicationsVLEO
NORAD 47798·PAYLOAD·🇺🇸 United States

Launched Mar 11, 2021 from Cape Canaveral Space Force Station

Loading…

Next Passes (next 24 hours)

TLE

FreshSource: CelesTrak SupGP

Epoch: Sep 15, 2026, 02:00 UTC

1 47798C 21018M   26258.08381944 -.00016916  00000+0 -54392-3 0  2585
2 47798  53.1587  77.7485 0001289  85.4814 238.9137 15.31714234    19

Track STARLINK-2379 in real time with AllMySat

Download on the App Store